Regional Weather Roundup
Issued by NWS

Home | Current Version | Previous Version | Graphics & Text | Print | Product List | Glossary On
Versions: 1 2 3 4 5 6 7 8 9 10 11 12 13 14 15 16 17 18 19 20 21 22 23 24 25 26 27 28 29 30 31 32 33 34 35 36 37 38 39 40 41 42 43 44 45 46 47 48 49 50
000
ASUS44 KMEG 251510
RWRTN
TENNESSEE HOURLY STATE WEATHER ROUNDUP
NATIONAL WEATHER SERVICE MEMPHIS TN
1000 AM CDT TUE JUL 25 2017

TNZ002-004-019-021-049-052-054-088>092-251600-
WEST TENNESSEE

CITY           SKY/WX    TMP DP  RH WIND       PRES   REMARKS
MEMPHIS INTL   MOSUNNY   88  78  72 CALM      30.08F HX 101
NWS MEMPHIS      N/A     87 N/A N/A MISG        N/A
JACKSON        SUNNY     86  77  74 CALM      30.09F HX  97
SOMERVILLE       N/A     86  77  74 CALM      30.08F HX  97
COVINGTON      SUNNY     84  79  84 VRB3      30.08F HX  96
UNION CITY     SUNNY     86  79  79 CALM      30.07F HX  99
BOLIVAR        MOSUNNY   86  75  70 CALM      30.09S HX  95
PARIS          SUNNY     84  77  79 CALM      30.09S HX  94
HUNTINGDON     SUNNY     84  77  79 CALM      30.08S HX  94
LEXINGTON      SUNNY     82  75  78 CALM      30.09F
SELMER         SUNNY     84  75  74 CALM      30.10S HX  92
SAVANNAH       SUNNY     84  75  74 CALM      30.09F HX  92
$$

TNZ008-025-027-028-033-062-065-066-251600-
NORTH MIDDLE TENNESSEE

CITY           SKY/WX    TMP DP  RH WIND       PRES   REMARKS
NASHVILLE      MOSUNNY   89  74  60 NW5       30.11S HX  98
PORTLAND       SUNNY     84  77  79 NW5       30.11R HX  94
CLARKSVILLE    MOSUNNY   85  75  72 CALM      30.10S HX  93
SMYRNA         MOSUNNY   87  75  67 VRB3      30.11S HX  96
COOKEVILLE     SUNNY     82  73  74 CALM      30.13R
GALLATIN       SUNNY     86  75  70 CALM      30.13R HX  95
CROSSVILLE     MOSUNNY   81  70  69 NE5       30.19R
$$

TNZ061-075-076-078-094-096-097-251600-
SOUTH MIDDLE TENNESSEE

CITY           SKY/WX    TMP DP  RH WIND       PRES   REMARKS
FAYETTEVILLE   SUNNY     82  73  74 CALM      30.13S
TULLAHOMA      SUNNY     82  72  69 VRB3      30.14S
WINCHESTER     SUNNY     84  73  70 VRB3      30.13S HX  91
MCMINNVILLE    SUNNY     84  75  74 CALM      30.13S HX  92
COLUMBIA       SUNNY     84  73  70 CALM      30.09S HX  91
SHELBYVILLE    SUNNY     82  75  78 CALM      30.12S
$$

TNZ017-018-042-046-047-251600-
NORTHEAST TENNESSEE

CITY           SKY/WX    TMP DP  RH WIND       PRES   REMARKS
TRI CITIES     MOSUNNY   82  69  64 CALM      30.16F
ELIZABETHTON   SUNNY     81  68  65 SW5       30.16F
$$

TNZ012-013-036-069-073-074-251600-
CENTRAL EAST TENNESSEE

CITY           SKY/WX    TMP DP  RH WIND       PRES   REMARKS
KNOXVILLE      MOSUNNY   84  70  62 CALM      30.12S
OAK RIDGE      SUNNY     85  70  60 CALM      30.14S
DOWNTOWN KNOXV SUNNY     84  73  70 CALM      30.12S HX  91
GATLINBURG     SUNNY     82  66  57 CALM      30.12F
MORRISTOWN     SUNNY     82  72  69 CALM      30.14S
JACKSBORO      MOSUNNY   82  72  69 CALM      30.17F
$$

TNZ083-085-099-251600-
SOUTHEAST TENNESSEE

CITY           SKY/WX    TMP DP  RH WIND       PRES   REMARKS
CHATTANOOGA    MOSUNNY   84  73  69 CALM      30.12S HX  90
DAYTON         SUNNY     82  75  78 CALM      30.11S
$$

SKY/WX REPORTED AS FAIR MEANS FEW OR NO CLOUDS BELOW
12 THOUSAND FEET.





USA.gov is the U.S. government's official web portal to all federal, state and local government web resources and services.